Simultaneous Nadir Overpasses (SNOs) Predictions

Prediction of SNOs between FY3D and NOAA-19 Satellite Orbit:

Table of predicted SNOs for the next 14.0 days since TLE Epoch: 1/18/2020
Index Date (FY3D) Time (FY3D) Lat,Lon (FY3D) SZA (FY3D ) Date (NOAA-19) Time (NOAA-19) Lat,Lon (NOAA-19) SZA (NOAA-19 ) Distance(km) Time Diff (sec)
1 01/29/2020 21:05:25 -79.67, 8.99 80.40 01/29/2020 21:04:10 -79.67, 9.02 80.37 0.90 75
2 01/29/2020 21:56:10 79.67, 176.30 99.59 01/29/2020 21:55:11 79.67, 176.25 99.63 1.21 59
3 01/29/2020 22:46:54 -79.66, -16.36 80.43 01/29/2020 22:46:10 -79.69, -16.28 80.39 3.40 44
4 01/29/2020 23:37:39 79.66, 150.96 99.57 01/29/2020 23:37:11 79.69, 150.95 99.60 2.88 28
5 01/30/2020 00:28:24 -79.69, -41.98 80.40 01/30/2020 00:28:11 -79.68, -41.87 80.41 2.40 13
6 01/30/2020 01:19:09 79.69, 125.34 99.60 01/30/2020 01:19:12 79.68, 125.35 99.59 1.31 3
7 01/30/2020 02:09:53 -79.69, -67.32 80.42 01/30/2020 02:10:12 -79.67, -67.46 80.43 3.22 19
8 01/30/2020 03:00:38 79.69, 99.99 99.58 01/30/2020 03:01:12 79.70, 100.05 99.56 1.51 34
9 01/30/2020 03:51:22 -79.68, -92.66 80.45 01/30/2020 03:52:12 -79.69, -92.76 80.45 2.09 50
10 01/30/2020 04:42:08 79.72, 74.37 99.61 01/30/2020 04:43:13 79.69, 74.45 99.55 3.46 65




NCC Satellite Simultaneous Nadir Overpasses (SNOs) Prediction Service
